Tracking 28333 objects as of 10-Dec-2023
HD Live streaming from Space Station
objects crossing your sky now

THOR BURNER 2A DEB

Track THOR BURNER 2A DEB now!
10-day predictions


NORAD ID: 28593
Int'l Code: 1974-015E
Perigee: 738.4 km
Apogee: 825.8 km
Inclination: 99.1 °
Period: 100.3 minutes
Semi major axis: 7153 km
RCS: 0.0137 m2 (small)
Launch date: March 16, 1974
Source: United States (US)
Launch site: AIR FORCE WESTERN TEST RANGE (AFWTR)

Note: This is SATELLITE DEBRIS
Your satellite tracking list
Your tracking list is empty




NASA's NSSDC Master Catalog

Two Line Element Set (TLE):
1 28593U 74015E   23343.88076671  .00001398  00000-0  49715-3 0  9992
2 28593  99.0946 322.6286 0061051 295.6674  63.8212 14.35026735982970
Source of the keplerian elements: AFSPC